Time,TemperatureF,DewpointF,PressureIn,WindDirection,WindDirectionDegrees,WindSpeedMPH,WindSpeedGustMPH,Humidity,HourlyPrecipIn,Conditions,Clouds,dailyrainin,SoftwareType,DateUTC
2013-08-14 00:01:00,67.4,60.8,30.03,WSW,252,4.0,11.0,79,0.00,,,0.00,WUHU216DAVISVP2,2013-08-14 05:01:00,
2013-08-14 00:06:00,67.4,60.4,30.03,WSW,256,4.0,11.0,78,0.00,,,0.00,WUHU216DAVISVP2,2013-08-14 05:06:00,
2013-08-14 00:11:00,67.4,60.4,30.03,West,260,4.0,11.0,78,0.00,,,0.00,WUHU216DAVISVP2,2013-08-14 05:11:00,
2013-08-14 00:16:00,67.4,60.4,30.03,WSW,252,4.0,10.0,78,0.00,,,0.00,WUHU216DAVISVP2,2013-08-14 05:16:00,
2013-08-14 00:21:00,67.5,60.5,30.03,WSW,254,4.0,10.0,78,0.00,,,0.00,WUHU216DAVISVP2,2013-08-14 05:21:00,
2013-08-14 00:26:00,67.4,60.4,30.03,West,263,5.0,12.0,78,0.00,,,0.00,WUHU216DAVISVP2,2013-08-14 05:26:00,
2013-08-14 00:31:00,67.4,60.4,30.03,West,260,2.0,12.0,78,0.00,,,0.00,WUHU216DAVISVP2,2013-08-14 05:31:00,
2013-08-14 00:36:00,67.2,60.2,30.03,West,262,4.0,12.0,78,0.00,,,0.00,WUHU216DAVISVP2,2013-08-14 05:36:00,
2013-08-14 00:41:00,66.9,59.9,30.03,West,278,4.0,12.0,78,0.00,,,0.00,WUHU216DAVISVP2,2013-08-14 05:41:00,
2013-08-14 00:46:00,66.7,60.1,30.03,WNW,288,5.0,7.0,79,0.00,,,0.00,WUHU216DAVISVP2,2013-08-14 05:46:00,
2013-08-14 00:51:00,66.5,59.9,30.03,WNW,287,4.0,7.0,79,0.00,,,0.00,WUHU216DAVISVP2,2013-08-14 05:51:00,
2013-08-14 00:56:00,66.2,59.9,30.03,WNW,289,1.0,7.0,80,0.00,,,0.00,WUHU216DAVISVP2,2013-08-14 05:56:00,
2013-08-14 01:01:00,65.9,59.6,30.03,WNW,289,0.0,7.0,80,0.00,,,0.00,WUHU216DAVISVP2,2013-08-14 06:01:00,
2013-08-14 01:06:00,65.7,59.4,30.03,WNW,288,0.0,6.0,80,0.00,,,0.00,WUHU216DAVISVP2,2013-08-14 06:06:00,
2013-08-14 01:11:00,65.5,59.6,30.03,WNW,289,3.0,6.0,81,0.00,,,0.00,WUHU216DAVISVP2,2013-08-14 06:11:00,
2013-08-14 01:16:00,65.3,59.4,30.03,WNW,289,0.0,6.0,81,0.00,,,0.00,WUHU216DAVISVP2,2013-08-14 06:16:00,
2013-08-14 01:21:00,65.1,59.5,30.03,WNW,289,2.0,6.0,82,0.00,,,0.00,WUHU216DAVISVP2,2013-08-14 06:21:00,
2013-08-14 01:26:00,64.8,59.2,30.03,WNW,289,0.0,6.0,82,0.00,,,0.00,WUHU216DAVISVP2,2013-08-14 06:26:00,
2013-08-14 01:31:00,64.7,59.5,30.04,WNW,289,1.0,6.0,83,0.00,,,0.00,WUHU216DAVISVP2,2013-08-14 06:31:00,
2013-08-14 01:36:00,64.6,59.4,30.04,WNW,289,2.0,5.0,83,0.00,,,0.00,WUHU216DAVISVP2,2013-08-14 06:36:00,
2013-08-14 01:41:00,64.5,59.6,30.04,WNW,289,0.0,5.0,84,0.00,,,0.00,WUHU216DAVISVP2,2013-08-14 06:41:00,
2013-08-14 01:46:00,64.4,59.5,30.04,WNW,289,0.0,5.0,84,0.00,,,0.00,WUHU216DAVISVP2,2013-08-14 06:46:00,
2013-08-14 01:51:00,64.3,59.4,30.04,WNW,289,0.0,5.0,84,0.00,,,0.00,WUHU216DAVISVP2,2013-08-14 06:51:00,
2013-08-14 01:56:00,64.3,59.4,30.04,WNW,283,3.0,6.0,84,0.00,,,0.00,WUHU216DAVISVP2,2013-08-14 06:56:00,
2013-08-14 02:01:00,64.4,59.4,30.04,West,279,2.0,6.0,84,0.00,,,0.00,WUHU216DAVISVP2,2013-08-14 07:01:00,
2013-08-14 02:06:00,64.4,59.4,30.04,West,267,3.0,6.0,84,0.00,,,0.00,WUHU216DAVISVP2,2013-08-14 07:06:00,
2013-08-14 02:11:00,64.4,59.5,30.03,West,264,4.0,7.0,84,0.00,,,0.00,WUHU216DAVISVP2,2013-08-14 07:11:00,
2013-08-14 02:17:00,64.3,59.4,30.03,West,268,3.0,7.0,84,0.00,,,0.00,WUHU216DAVISVP2,2013-08-14 07:17:00,
2013-08-14 02:30:00,64.1,59.2,30.03,West,269,4.0,7.0,84,0.00,,,0.00,WUHU216DAVISVP2,2013-08-14 07:30:00,
2013-08-14 02:35:00,63.8,59.2,30.03,West,279,3.0,8.0,85,0.00,,,0.00,WUHU216DAVISVP2,2013-08-14 07:35:00,
2013-08-14 02:40:00,63.7,59.5,30.03,West,279,0.0,8.0,86,0.00,,,0.00,WUHU216DAVISVP2,2013-08-14 07:40:00,
2013-08-14 02:45:00,63.8,59.5,30.03,West,278,3.0,8.0,86,0.00,,,0.00,WUHU216DAVISVP2,2013-08-14 07:45:00,
2013-08-14 02:50:00,63.8,59.5,30.03,West,277,1.0,7.0,86,0.00,,,0.00,WUHU216DAVISVP2,2013-08-14 07:50:00,
2013-08-14 02:55:00,63.7,59.4,30.03,West,276,4.0,7.0,86,0.00,,,0.00,WUHU216DAVISVP2,2013-08-14 07:55:00,
2013-08-14 03:00:00,63.6,59.3,30.03,West,275,3.0,7.0,86,0.00,,,0.00,WUHU216DAVISVP2,2013-08-14 08:00:00,
2013-08-14 03:05:00,63.4,59.2,30.03,West,276,0.0,7.0,86,0.00,,,0.00,WUHU216DAVISVP2,2013-08-14 08:05:00,
2013-08-14 03:10:00,63.4,59.5,30.03,West,276,2.0,7.0,87,0.00,,,0.00,WUHU216DAVISVP2,2013-08-14 08:10:00,
2013-08-14 03:15:00,63.4,59.4,30.03,West,275,3.0,7.0,87,0.00,,,0.00,WUHU216DAVISVP2,2013-08-14 08:15:00,
2013-08-14 07:49:00,62.4,58.8,30.09,West,276,6.0,9.0,88,0.00,,,0.00,WUHU216DAVISVP2,2013-08-14 12:49:00,
2013-08-14 07:54:00,62.9,58.9,30.09,WNW,289,2.0,9.0,87,0.00,,,0.00,WUHU216DAVISVP2,2013-08-14 12:54:00,
2013-08-14 07:59:00,63.2,58.9,30.09,WNW,301,5.0,9.0,86,0.00,,,0.00,WUHU216DAVISVP2,2013-08-14 12:59:00,
2013-08-14 08:04:00,63.3,58.4,30.09,West,281,5.0,11.0,84,0.00,,,0.00,WUHU216DAVISVP2,2013-08-14 13:04:00,
2013-08-14 08:09:00,63.3,58.4,30.09,WNW,293,5.0,11.0,84,0.00,,,0.00,WUHU216DAVISVP2,2013-08-14 13:09:00,
2013-08-14 08:14:00,63.4,58.5,30.09,WNW,293,2.0,11.0,84,0.00,,,0.00,WUHU216DAVISVP2,2013-08-14 13:14:00,
2013-08-14 08:19:00,63.7,58.5,30.09,WNW,293,2.0,11.0,83,0.00,,,0.00,WUHU216DAVISVP2,2013-08-14 13:19:00,
2013-08-14 08:24:00,63.7,58.2,30.09,WNW,299,7.0,10.0,82,0.00,,,0.00,WUHU216DAVISVP2,2013-08-14 13:24:00,
2013-08-14 08:29:00,63.8,57.9,30.09,WNW,301,9.0,9.0,81,0.00,,,0.00,WUHU216DAVISVP2,2013-08-14 13:29:00,
2013-08-14 08:34:00,63.8,57.9,30.10,NW,324,8.0,13.0,81,0.00,,,0.00,WUHU216DAVISVP2,2013-08-14 13:34:00,
2013-08-14 08:39:00,63.9,58.0,30.10,WNW,300,5.0,13.0,81,0.00,,,0.00,WUHU216DAVISVP2,2013-08-14 13:39:00,
2013-08-14 08:44:00,63.9,57.3,30.09,WNW,292,5.0,13.0,79,0.00,,,0.00,WUHU216DAVISVP2,2013-08-14 13:44:00,
2013-08-14 08:49:00,64.1,57.8,30.10,NW,324,9.0,13.0,80,0.00,,,0.00,WUHU216DAVISVP2,2013-08-14 13:49:00,
2013-08-14 08:54:00,64.1,57.2,30.10,WNW,302,5.0,11.0,78,0.00,,,0.00,WUHU216DAVISVP2,2013-08-14 13:54:00,
2013-08-14 08:59:00,64.0,57.5,30.10,NNW,328,7.0,11.0,79,0.00,,,0.00,WUHU216DAVISVP2,2013-08-14 13:59:00,
2013-08-14 09:04:00,64.2,57.3,30.10,NW,314,4.0,11.0,78,0.00,,,0.00,WUHU216DAVISVP2,2013-08-14 14:04:00,
2013-08-14 09:09:00,64.3,57.3,30.10,NW,306,5.0,11.0,78,0.00,,,0.00,WUHU216DAVISVP2,2013-08-14 14:09:00,
2013-08-14 09:14:00,64.5,57.6,30.10,NW,318,5.0,11.0,78,0.00,,,0.00,WUHU216DAVISVP2,2013-08-14 14:14:00,
2013-08-14 09:19:00,64.7,57.0,30.11,WNW,301,7.0,11.0,76,0.00,,,0.00,WUHU216DAVISVP2,2013-08-14 14:19:00,
2013-08-14 09:24:00,64.6,57.3,30.10,NW,318,7.0,11.0,77,0.00,,,0.00,WUHU216DAVISVP2,2013-08-14 14:24:00,
2013-08-14 09:29:00,64.6,57.0,30.10,NNW,334,5.0,11.0,76,0.00,,,0.00,WUHU216DAVISVP2,2013-08-14 14:29:00,
2013-08-14 09:34:00,64.7,57.8,30.11,NW,316,4.0,11.0,78,0.00,,,0.00,WUHU216DAVISVP2,2013-08-14 14:34:00,
2013-08-14 09:39:00,65.0,57.0,30.11,WNW,290,4.0,11.0,75,0.00,,,0.00,WUHU216DAVISVP2,2013-08-14 14:39:00,
2013-08-14 09:44:00,65.2,56.4,30.11,NW,321,8.0,11.0,73,0.00,,,0.00,WUHU216DAVISVP2,2013-08-14 14:44:00,
2013-08-14 09:49:00,65.2,56.5,30.11,NW,310,6.0,10.0,73,0.00,,,0.00,WUHU216DAVISVP2,2013-08-14 14:49:00,
2013-08-14 09:54:00,65.2,56.1,30.11,NW,308,6.0,11.0,72,0.00,,,0.00,WUHU216DAVISVP2,2013-08-14 14:54:00,
2013-08-14 09:59:00,65.3,56.2,30.11,WNW,301,5.0,11.0,72,0.00,,,0.00,WUHU216DAVISVP2,2013-08-14 14:59:00,
2013-08-14 10:04:00,65.3,57.0,30.12,WNW,282,4.0,11.0,74,0.00,,,0.00,WUHU216DAVISVP2,2013-08-14 15:04:00,
2013-08-14 10:09:00,65.6,56.5,30.12,NNW,347,5.0,11.0,72,0.00,,,0.00,WUHU216DAVISVP2,2013-08-14 15:09:00,
2013-08-14 10:14:00,65.8,56.7,30.12,WNW,294,7.0,9.0,72,0.00,,,0.00,WUHU216DAVISVP2,2013-08-14 15:14:00,
2013-08-14 10:19:00,66.0,55.7,30.12,WNW,287,8.0,9.0,69,0.00,,,0.00,WUHU216DAVISVP2,2013-08-14 15:19:00,
2013-08-14 10:24:00,66.0,55.7,30.12,NW,314,5.0,9.0,69,0.00,,,0.00,WUHU216DAVISVP2,2013-08-14 15:24:00,
2013-08-14 10:29:00,66.1,55.8,30.12,WSW,249,8.0,9.0,69,0.00,,,0.00,WUHU216DAVISVP2,2013-08-14 15:29:00,
2013-08-14 10:34:00,66.3,56.7,30.12,WNW,289,6.0,9.0,71,0.00,,,0.00,WUHU216DAVISVP2,2013-08-14 15:34:00,
2013-08-14 10:40:00,66.4,55.7,30.12,WNW,285,6.0,10.0,68,0.00,,,0.00,WUHU216DAVISVP2,2013-08-14 15:40:00,
2013-08-14 10:44:00,66.5,55.8,30.12,WNW,285,5.0,10.0,68,0.00,,,0.00,WUHU216DAVISVP2,2013-08-14 15:44:00,
2013-08-14 10:50:00,66.4,56.1,30.12,WNW,292,6.0,10.0,69,0.00,,,0.00,WUHU216DAVISVP2,2013-08-14 15:50:00,
2013-08-14 10:55:00,66.5,55.0,30.12,West,259,3.0,10.0,66,0.00,,,0.00,WUHU216DAVISVP2,2013-08-14 15:55:00,
2013-08-14 11:00:00,66.6,56.3,30.12,WNW,293,4.0,10.0,69,0.00,,,0.00,WUHU216DAVISVP2,2013-08-14 16:00:00,
2013-08-14 11:05:00,66.6,55.4,30.13,NW,315,2.0,12.0,67,0.00,,,0.00,WUHU216DAVISVP2,2013-08-14 16:05:00,
2013-08-14 11:10:00,66.4,55.3,30.12,WNW,298,6.0,12.0,67,0.00,,,0.00,WUHU216DAVISVP2,2013-08-14 16:10:00,
2013-08-14 11:15:00,66.1,55.0,30.12,WNW,288,8.0,12.0,67,0.00,,,0.00,WUHU216DAVISVP2,2013-08-14 16:15:00,
2013-08-14 11:20:00,66.1,55.0,30.12,WSW,257,8.0,12.0,67,0.00,,,0.00,WUHU216DAVISVP2,2013-08-14 16:20:00,
2013-08-14 11:25:00,66.2,54.7,30.12,WSW,256,5.0,12.0,66,0.00,,,0.00,WUHU216DAVISVP2,2013-08-14 16:25:00,
2013-08-14 11:30:00,66.6,56.2,30.13,NW,318,5.0,11.0,69,0.00,,,0.00,WUHU216DAVISVP2,2013-08-14 16:30:00,
2013-08-14 11:35:00,67.2,55.2,30.12,WNW,283,1.0,11.0,65,0.00,,,0.00,WUHU216DAVISVP2,2013-08-14 16:35:00,
2013-08-14 11:40:00,67.7,53.5,30.12,West,264,3.0,11.0,60,0.00,,,0.00,WUHU216DAVISVP2,2013-08-14 16:40:00,
2013-08-14 11:45:00,67.7,53.0,30.12,West,274,4.0,13.0,59,0.00,,,0.00,WUHU216DAVISVP2,2013-08-14 16:45:00,
2013-08-14 11:50:00,67.7,52.5,30.12,West,270,7.0,13.0,58,0.00,,,0.00,WUHU216DAVISVP2,2013-08-14 16:50:00,
2013-08-14 11:55:00,67.6,52.0,30.12,WNW,284,7.0,13.0,57,0.00,,,0.00,WUHU216DAVISVP2,2013-08-14 16:55:00,
2013-08-14 12:00:00,67.6,53.8,30.12,WNW,292,4.0,13.0,61,0.00,,,0.00,WUHU216DAVISVP2,2013-08-14 17:00:00,
2013-08-14 12:05:00,67.5,52.4,30.11,West,259,0.0,13.0,58,0.00,,,0.00,WUHU216DAVISVP2,2013-08-14 17:05:00,
2013-08-14 12:10:00,67.6,52.0,30.11,West,259,0.0,13.0,57,0.00,,,0.00,WUHU216DAVISVP2,2013-08-14 17:10:00,
2013-08-14 12:15:00,68.0,52.3,30.11,WSW,253,7.0,9.0,57,0.00,,,0.00,WUHU216DAVISVP2,2013-08-14 17:15:00,
2013-08-14 12:20:00,67.6,52.0,30.11,WNW,297,5.0,11.0,57,0.00,,,0.00,WUHU216DAVISVP2,2013-08-14 17:20:00,
2013-08-14 12:25:00,67.8,52.6,30.11,WNW,283,3.0,11.0,58,0.00,,,0.00,WUHU216DAVISVP2,2013-08-14 17:25:00,
2013-08-14 12:30:00,68.1,51.9,30.11,WNW,296,4.0,11.0,56,0.00,,,0.00,WUHU216DAVISVP2,2013-08-14 17:30:00,
2013-08-14 12:35:00,68.2,52.1,30.11,WSW,242,6.0,11.0,56,0.00,,,0.00,WUHU216DAVISVP2,2013-08-14 17:35:00,
2013-08-14 12:40:00,68.0,51.4,30.11,West,275,8.0,11.0,55,0.00,,,0.00,WUHU216DAVISVP2,2013-08-14 17:40:00,
2013-08-14 12:45:00,68.1,52.0,30.10,WSW,252,8.0,11.0,56,0.00,,,0.00,WUHU216DAVISVP2,2013-08-14 17:45:00,
2013-08-14 12:50:00,67.5,51.9,30.10,WSW,255,4.0,12.0,57,0.00,,,0.00,WUHU216DAVISVP2,2013-08-14 17:50:00,
2013-08-14 12:55:00,67.6,51.5,30.10,West,272,8.0,12.0,56,0.00,,,0.00,WUHU216DAVISVP2,2013-08-14 17:55:00,
2013-08-14 13:00:00,67.8,51.7,30.10,West,272,3.0,12.0,56,0.00,,,0.00,WUHU216DAVISVP2,2013-08-14 18:00:00,
2013-08-14 13:06:00,68.1,52.4,30.10,West,279,8.0,12.0,57,0.00,,,0.00,WUHU216DAVISVP2,2013-08-14 18:06:00,
2013-08-14 13:11:00,68.2,51.0,30.10,WSW,243,0.0,12.0,54,0.00,,,0.00,WUHU216DAVISVP2,2013-08-14 18:11:00,
2013-08-14 13:16:00,68.3,51.6,30.10,WSW,258,7.0,11.0,55,0.00,,,0.00,WUHU216DAVISVP2,2013-08-14 18:16:00,
2013-08-14 13:21:00,68.7,52.5,30.10,West,264,7.0,11.0,56,0.00,,,0.00,WUHU216DAVISVP2,2013-08-14 18:21:00,
2013-08-14 13:26:00,68.9,51.1,30.10,SSW,208,0.0,11.0,53,0.00,,,0.00,WUHU216DAVISVP2,2013-08-14 18:26:00,
2013-08-14 13:31:00,68.7,51.5,30.09,WNW,295,3.0,11.0,54,0.00,,,0.00,WUHU216DAVISVP2,2013-08-14 18:31:00,
2013-08-14 13:36:00,69.0,52.8,30.09,WNW,284,6.0,11.0,56,0.00,,,0.00,WUHU216DAVISVP2,2013-08-14 18:36:00,
2013-08-14 13:41:00,69.2,51.5,30.09,WSW,248,3.0,11.0,53,0.00,,,0.00,WUHU216DAVISVP2,2013-08-14 18:41:00,
2013-08-14 13:48:00,69.1,51.3,30.09,West,263,8.0,11.0,53,0.00,,,0.00,WUHU216DAVISVP2,2013-08-14 18:48:00,
2013-08-14 13:53:00,69.1,50.8,30.08,West,259,7.0,13.0,52,0.00,,,0.00,WUHU216DAVISVP2,2013-08-14 18:53:00,
2013-08-14 13:58:00,69.3,51.5,30.09,WSW,248,12.0,13.0,53,0.00,,,0.00,WUHU216DAVISVP2,2013-08-14 18:58:00,
2013-08-14 14:03:00,69.2,52.5,30.08,West,266,10.0,13.0,55,0.00,,,0.00,WUHU216DAVISVP2,2013-08-14 19:03:00,
2013-08-14 14:08:00,69.1,51.9,30.08,WNW,282,7.0,14.0,54,0.00,,,0.00,WUHU216DAVISVP2,2013-08-14 19:08:00,
2013-08-14 14:13:00,69.2,52.0,30.08,West,275,8.0,14.0,54,0.00,,,0.00,WUHU216DAVISVP2,2013-08-14 19:13:00,
2013-08-14 14:19:00,69.7,52.4,30.08,West,268,5.0,14.0,54,0.00,,,0.00,WUHU216DAVISVP2,2013-08-14 19:19:00,
2013-08-14 14:24:00,69.7,51.3,30.08,WSW,241,5.0,14.0,52,0.00,,,0.00,WUHU216DAVISVP2,2013-08-14 19:24:00,
2013-08-14 14:29:00,69.5,51.2,30.08,SSW,209,3.0,13.0,52,0.00,,,0.00,WUHU216DAVISVP2,2013-08-14 19:29:00,
2013-08-14 14:34:00,69.8,52.0,30.08,SW,214,4.0,13.0,53,0.00,,,0.00,WUHU216DAVISVP2,2013-08-14 19:34:00,
2013-08-14 14:39:00,70.0,51.6,30.08,South,177,0.0,12.0,52,0.00,,,0.00,WUHU216DAVISVP2,2013-08-14 19:39:00,
2013-08-14 14:44:00,70.3,51.9,30.08,SW,232,7.0,13.0,52,0.00,,,0.00,WUHU216DAVISVP2,2013-08-14 19:44:00,
2013-08-14 14:50:00,70.0,52.2,30.08,SW,235,5.0,13.0,53,0.00,,,0.00,WUHU216DAVISVP2,2013-08-14 19:50:00,
2013-08-14 14:55:00,70.3,51.3,30.08,SSE,156,1.0,13.0,51,0.00,,,0.00,WUHU216DAVISVP2,2013-08-14 19:55:00,
2013-08-14 15:00:00,70.5,52.2,30.08,SSW,207,5.0,13.0,52,0.00,,,0.00,WUHU216DAVISVP2,2013-08-14 20:00:00,
2013-08-14 15:06:00,70.9,52.5,30.08,SSE,163,6.0,11.0,52,0.00,,,0.00,WUHU216DAVISVP2,2013-08-14 20:06:00,
2013-08-14 15:11:00,71.2,52.7,30.08,SSW,212,2.0,11.0,52,0.00,,,0.00,WUHU216DAVISVP2,2013-08-14 20:11:00,
2013-08-14 15:16:00,71.0,52.5,30.08,SW,225,1.0,11.0,52,0.00,,,0.00,WUHU216DAVISVP2,2013-08-14 20:16:00,
2013-08-14 15:21:00,70.7,51.7,30.08,SSW,208,2.0,11.0,51,0.00,,,0.00,WUHU216DAVISVP2,2013-08-14 20:21:00,
2013-08-14 15:26:00,71.2,52.2,30.08,SSE,156,0.0,9.0,51,0.00,,,0.00,WUHU216DAVISVP2,2013-08-14 20:26:00,
2013-08-14 15:31:00,71.3,52.9,30.08,South,185,4.0,8.0,52,0.00,,,0.00,WUHU216DAVISVP2,2013-08-14 20:31:00,
2013-08-14 15:36:00,71.6,54.2,30.07,SSW,197,1.0,8.0,54,0.00,,,0.00,WUHU216DAVISVP2,2013-08-14 20:36:00,
2013-08-14 15:42:00,71.6,53.2,30.07,SSW,198,6.0,9.0,52,0.00,,,0.00,WUHU216DAVISVP2,2013-08-14 20:42:00,
2013-08-14 15:47:00,71.6,53.1,30.07,SSW,197,3.0,10.0,52,0.00,,,0.00,WUHU216DAVISVP2,2013-08-14 20:47:00,
2013-08-14 15:52:00,71.5,53.6,30.07,SW,222,7.0,10.0,53,0.00,,,0.00,WUHU216DAVISVP2,2013-08-14 20:52:00,
2013-08-14 15:57:00,72.0,54.6,30.07,SSW,210,4.0,10.0,54,0.00,,,0.00,WUHU216DAVISVP2,2013-08-14 20:57:00,
2013-08-14 16:03:00,72.3,53.3,30.07,SSW,212,6.0,10.0,51,0.00,,,0.00,WUHU216DAVISVP2,2013-08-14 21:03:00,
2013-08-14 16:08:00,72.5,54.0,30.07,SSW,202,6.0,10.0,52,0.00,,,0.00,WUHU216DAVISVP2,2013-08-14 21:08:00,
2013-08-14 16:13:00,72.9,53.8,30.06,SSW,201,0.0,10.0,51,0.00,,,0.00,WUHU216DAVISVP2,2013-08-14 21:13:00,
2013-08-14 16:17:00,73.2,53.6,30.06,SSW,211,5.0,10.0,50,0.00,,,0.00,WUHU216DAVISVP2,2013-08-14 21:17:00,
2013-08-14 16:22:00,73.2,52.9,30.06,WSW,244,2.0,9.0,49,0.00,,,0.00,WUHU216DAVISVP2,2013-08-14 21:22:00,
2013-08-14 16:28:00,73.2,53.0,30.06,SSW,202,3.0,9.0,49,0.00,,,0.00,WUHU216DAVISVP2,2013-08-14 21:28:00,
2013-08-14 16:33:00,73.4,52.5,30.06,SSW,197,0.0,9.0,48,0.00,,,0.00,WUHU216DAVISVP2,2013-08-14 21:33:00,
2013-08-14 16:38:00,73.7,54.5,30.06,West,260,1.0,9.0,51,0.00,,,0.00,WUHU216DAVISVP2,2013-08-14 21:38:00,
2013-08-14 16:43:00,74.2,55.0,30.06,West,270,5.0,9.0,51,0.00,,,0.00,WUHU216DAVISVP2,2013-08-14 21:43:00,
2013-08-14 16:48:00,74.3,53.4,30.06,WSW,238,3.0,9.0,48,0.00,,,0.00,WUHU216DAVISVP2,2013-08-14 21:48:00,
2013-08-14 16:53:00,74.2,55.0,30.06,WSW,248,10.0,10.0,51,0.00,,,0.00,WUHU216DAVISVP2,2013-08-14 21:53:00,
2013-08-14 16:58:00,74.2,55.5,30.06,SW,227,4.0,10.0,52,0.00,,,0.00,WUHU216DAVISVP2,2013-08-14 21:58:00,
2013-08-14 17:03:00,74.0,54.9,30.06,West,260,1.0,10.0,51,0.00,,,0.00,WUHU216DAVISVP2,2013-08-14 22:03:00,
2013-08-14 17:08:00,74.1,53.2,30.06,SW,236,8.0,12.0,48,0.00,,,0.00,WUHU216DAVISVP2,2013-08-14 22:08:00,
2013-08-14 17:13:00,73.9,54.8,30.06,WSW,243,3.0,12.0,51,0.00,,,0.00,WUHU216DAVISVP2,2013-08-14 22:13:00,
2013-08-14 17:18:00,74.0,54.3,30.05,SW,230,6.0,12.0,50,0.00,,,0.00,WUHU216DAVISVP2,2013-08-14 22:18:00,
2013-08-14 17:23:00,73.9,54.1,30.05,South,189,5.0,12.0,50,0.00,,,0.00,WUHU216DAVISVP2,2013-08-14 22:23:00,
2013-08-14 17:28:00,74.4,55.2,30.05,WSW,241,7.0,12.0,51,0.00,,,0.00,WUHU216DAVISVP2,2013-08-14 22:28:00,
2013-08-14 17:33:00,74.7,56.0,30.05,WSW,243,2.0,11.0,52,0.00,,,0.00,WUHU216DAVISVP2,2013-08-14 22:33:00,
2013-08-14 17:38:00,75.0,55.2,30.05,SSW,204,3.0,11.0,50,0.00,,,0.00,WUHU216DAVISVP2,2013-08-14 22:38:00,
2013-08-14 17:43:00,74.9,55.1,30.05,WSW,256,8.0,11.0,50,0.00,,,0.00,WUHU216DAVISVP2,2013-08-14 22:43:00,
2013-08-14 17:48:00,74.6,55.4,30.05,WSW,247,3.0,11.0,51,0.00,,,0.00,WUHU216DAVISVP2,2013-08-14 22:48:00,
2013-08-14 17:53:00,74.8,55.6,30.05,WSW,248,1.0,11.0,51,0.00,,,0.00,WUHU216DAVISVP2,2013-08-14 22:53:00,
2013-08-14 17:58:00,74.7,55.5,30.05,West,264,6.0,15.0,51,0.00,,,0.00,WUHU216DAVISVP2,2013-08-14 22:58:00,
2013-08-14 18:04:00,74.7,54.3,30.05,SW,214,5.0,15.0,49,0.00,,,0.00,WUHU216DAVISVP2,2013-08-14 23:04:00,
2013-08-14 18:09:00,74.6,54.3,30.05,SW,224,0.0,15.0,49,0.00,,,0.00,WUHU216DAVISVP2,2013-08-14 23:09:00,
2013-08-14 18:14:00,74.7,55.5,30.05,WSW,251,3.0,15.0,51,0.00,,,0.00,WUHU216DAVISVP2,2013-08-14 23:14:00,
2013-08-14 18:19:00,74.4,56.2,30.05,SW,230,3.0,10.0,53,0.00,,,0.00,WUHU216DAVISVP2,2013-08-14 23:19:00,
2013-08-14 18:24:00,74.0,55.9,30.05,SW,220,1.0,10.0,53,0.00,,,0.00,WUHU216DAVISVP2,2013-08-14 23:24:00,
2013-08-14 18:29:00,73.8,55.2,30.05,SSW,202,1.0,10.0,52,0.00,,,0.00,WUHU216DAVISVP2,2013-08-14 23:29:00,
2013-08-14 18:34:00,73.9,55.9,30.05,SSW,198,1.0,8.0,53,0.00,,,0.00,WUHU216DAVISVP2,2013-08-14 23:34:00,
2013-08-14 18:39:00,74.0,55.4,30.04,West,268,3.0,8.0,52,0.00,,,0.00,WUHU216DAVISVP2,2013-08-14 23:39:00,
2013-08-14 18:44:00,73.9,55.2,30.04,West,269,4.0,8.0,52,0.00,,,0.00,WUHU216DAVISVP2,2013-08-14 23:44:00,
2013-08-14 18:49:00,73.7,55.1,30.04,West,264,5.0,8.0,52,0.00,,,0.00,WUHU216DAVISVP2,2013-08-14 23:49:00,
2013-08-14 18:54:00,73.5,55.4,30.04,WSW,238,3.0,8.0,53,0.00,,,0.00,WUHU216DAVISVP2,2013-08-14 23:54:00,
2013-08-14 18:59:00,73.4,55.3,30.04,SW,222,0.0,7.0,53,0.00,,,0.00,WUHU216DAVISVP2,2013-08-14 23:59:00,
2013-08-14 19:04:00,73.1,55.1,30.04,SW,226,3.0,7.0,53,0.00,,,0.00,WUHU216DAVISVP2,2013-08-15 00:04:00,
2013-08-14 19:09:00,73.0,55.5,30.04,WSW,243,6.0,7.0,54,0.00,,,0.00,WUHU216DAVISVP2,2013-08-15 00:09:00,
2013-08-14 19:14:00,72.7,55.2,30.04,WSW,252,0.0,7.0,54,0.00,,,0.00,WUHU216DAVISVP2,2013-08-15 00:14:00,
2013-08-14 19:19:00,72.4,55.5,30.04,SW,234,3.0,7.0,55,0.00,,,0.00,WUHU216DAVISVP2,2013-08-15 00:19:00,
2013-08-14 19:24:00,72.2,55.3,30.04,WSW,247,2.0,7.0,55,0.00,,,0.00,WUHU216DAVISVP2,2013-08-15 00:24:00,
2013-08-14 19:29:00,71.8,55.5,30.04,WSW,247,2.0,7.0,56,0.00,,,0.00,WUHU216DAVISVP2,2013-08-15 00:29:00,
2013-08-14 19:34:00,71.7,55.8,30.04,WSW,247,0.0,7.0,57,0.00,,,0.00,WUHU216DAVISVP2,2013-08-15 00:34:00,
2013-08-14 19:39:00,71.5,55.6,30.05,West,265,1.0,9.0,57,0.00,,,0.00,WUHU216DAVISVP2,2013-08-15 00:39:00,
2013-08-14 19:44:00,71.2,55.9,30.04,West,265,0.0,9.0,58,0.00,,,0.00,WUHU216DAVISVP2,2013-08-15 00:44:00,
2013-08-14 19:49:00,70.9,56.0,30.04,West,265,4.0,9.0,59,0.00,,,0.00,WUHU216DAVISVP2,2013-08-15 00:49:00,
2013-08-14 19:54:00,70.5,55.6,30.04,West,265,2.0,9.0,59,0.00,,,0.00,WUHU216DAVISVP2,2013-08-15 00:54:00,
2013-08-14 19:59:00,69.9,55.6,30.04,West,265,4.0,5.0,60,0.00,,,0.00,WUHU216DAVISVP2,2013-08-15 00:59:00,
2013-08-14 20:04:00,69.5,55.6,30.04,WSW,258,1.0,7.0,61,0.00,,,0.00,WUHU216DAVISVP2,2013-08-15 01:04:00,
2013-08-14 20:09:00,69.0,55.6,30.04,West,260,1.0,7.0,62,0.00,,,0.00,WUHU216DAVISVP2,2013-08-15 01:09:00,
2013-08-14 20:14:00,68.7,55.8,30.04,West,260,0.0,7.0,63,0.00,,,0.00,WUHU216DAVISVP2,2013-08-15 01:14:00,
2013-08-14 20:19:00,68.4,55.5,30.04,West,260,0.0,7.0,63,0.00,,,0.00,WUHU216DAVISVP2,2013-08-15 01:19:00,
2013-08-14 20:24:00,68.1,55.6,30.04,West,260,0.0,6.0,64,0.00,,,0.00,WUHU216DAVISVP2,2013-08-15 01:24:00,
2013-08-14 20:29:00,67.7,55.3,30.04,West,260,1.0,4.0,64,0.00,,,0.00,WUHU216DAVISVP2,2013-08-15 01:29:00,
2013-08-14 20:34:00,67.5,55.1,30.04,West,260,0.0,4.0,64,0.00,,,0.00,WUHU216DAVISVP2,2013-08-15 01:34:00,
2013-08-14 20:39:00,67.2,55.2,30.04,West,260,0.0,4.0,65,0.00,,,0.00,WUHU216DAVISVP2,2013-08-15 01:39:00,
2013-08-14 20:44:00,66.9,55.4,30.05,West,260,0.0,4.0,66,0.00,,,0.00,WUHU216DAVISVP2,2013-08-15 01:44:00,
2013-08-14 20:49:00,66.7,55.2,30.05,West,260,0.0,1.0,66,0.00,,,0.00,WUHU216DAVISVP2,2013-08-15 01:49:00,
2013-08-14 20:54:00,66.5,55.0,30.05,West,260,0.0,2.0,66,0.00,,,0.00,WUHU216DAVISVP2,2013-08-15 01:54:00,
2013-08-14 20:59:00,66.3,55.1,30.05,West,260,0.0,2.0,67,0.00,,,0.00,WUHU216DAVISVP2,2013-08-15 01:59:00,
2013-08-14 21:04:00,66.1,55.4,30.05,West,260,0.0,3.0,68,0.00,,,0.00,WUHU216DAVISVP2,2013-08-15 02:04:00,
2013-08-14 21:09:00,65.9,55.2,30.06,West,260,0.0,3.0,68,0.00,,,0.00,WUHU216DAVISVP2,2013-08-15 02:09:00,
2013-08-14 21:14:00,65.7,55.0,30.06,West,260,0.0,3.0,68,0.00,,,0.00,WUHU216DAVISVP2,2013-08-15 02:14:00,
2013-08-14 21:19:00,65.4,55.2,30.06,West,260,0.0,3.0,69,0.00,,,0.00,WUHU216DAVISVP2,2013-08-15 02:19:00,
2013-08-14 21:24:00,65.3,55.4,30.06,West,260,1.0,2.0,70,0.00,,,0.00,WUHU216DAVISVP2,2013-08-15 02:24:00,
2013-08-14 21:29:00,64.9,55.4,30.06,West,260,0.0,2.0,71,0.00,,,0.00,WUHU216DAVISVP2,2013-08-15 02:29:00,
2013-08-14 21:34:00,64.5,55.0,30.07,West,260,0.0,2.0,71,0.00,,,0.00,WUHU216DAVISVP2,2013-08-15 02:34:00,
2013-08-14 21:39:00,64.2,55.2,30.07,West,260,0.0,2.0,72,0.00,,,0.00,WUHU216DAVISVP2,2013-08-15 02:39:00,
2013-08-14 21:44:00,64.0,54.9,30.07,West,260,0.0,2.0,72,0.00,,,0.00,WUHU216DAVISVP2,2013-08-15 02:44:00,
2013-08-14 21:49:00,63.9,55.2,30.07,West,260,0.0,3.0,73,0.00,,,0.00,WUHU216DAVISVP2,2013-08-15 02:49:00,
2013-08-14 21:54:00,63.8,55.1,30.07,West,260,2.0,4.0,73,0.00,,,0.00,WUHU216DAVISVP2,2013-08-15 02:54:00,
2013-08-14 21:59:00,63.5,54.9,30.07,West,260,0.0,4.0,73,0.00,,,0.00,WUHU216DAVISVP2,2013-08-15 02:59:00,
2013-08-14 22:04:00,63.4,55.1,30.07,West,260,1.0,4.0,74,0.00,,,0.00,WUHU216DAVISVP2,2013-08-15 03:04:00,
2013-08-14 22:09:00,63.2,54.9,30.08,West,260,0.0,4.0,74,0.00,,,0.00,WUHU216DAVISVP2,2013-08-15 03:09:00,
2013-08-14 22:14:00,63.1,55.1,30.07,West,260,0.0,4.0,75,0.00,,,0.00,WUHU216DAVISVP2,2013-08-15 03:14:00,
2013-08-14 22:19:00,62.8,54.9,30.08,West,260,0.0,4.0,75,0.00,,,0.00,WUHU216DAVISVP2,2013-08-15 03:19:00,
2013-08-14 22:24:00,62.8,54.9,30.08,West,260,0.0,4.0,75,0.00,,,0.00,WUHU216DAVISVP2,2013-08-15 03:24:00,
2013-08-14 22:29:00,62.6,54.7,30.08,West,260,0.0,4.0,75,0.00,,,0.00,WUHU216DAVISVP2,2013-08-15 03:29:00,
2013-08-14 22:34:00,62.5,54.9,30.08,West,260,0.0,4.0,76,0.00,,,0.00,WUHU216DAVISVP2,2013-08-15 03:34:00,
2013-08-14 22:39:00,62.5,54.9,30.08,West,260,4.0,4.0,76,0.00,,,0.00,WUHU216DAVISVP2,2013-08-15 03:39:00,
2013-08-14 22:44:00,62.4,54.8,30.08,West,260,1.0,5.0,76,0.00,,,0.00,WUHU216DAVISVP2,2013-08-15 03:44:00,
2013-08-14 22:49:00,62.1,54.6,30.07,West,260,3.0,5.0,76,0.00,,,0.00,WUHU216DAVISVP2,2013-08-15 03:49:00,
2013-08-14 22:54:00,62.0,54.5,30.08,West,260,2.0,5.0,76,0.00,,,0.00,WUHU216DAVISVP2,2013-08-15 03:54:00,
2013-08-14 22:59:00,61.8,54.6,30.08,West,260,3.0,5.0,77,0.00,,,0.00,WUHU216DAVISVP2,2013-08-15 03:59:00,
2013-08-14 23:01:00,61.8,54.6,30.08,West,260,1.0,5.0,77,0.00,,,0.00,WUHU216DAVISVP2,2013-08-15 04:01:00,
2013-08-14 23:06:00,61.6,54.4,30.08,West,260,3.0,4.0,77,0.00,,,0.00,WUHU216DAVISVP2,2013-08-15 04:06:00,
2013-08-14 23:11:00,61.5,54.6,30.08,West,260,2.0,5.0,78,0.00,,,0.00,WUHU216DAVISVP2,2013-08-15 04:11:00,
2013-08-14 23:16:00,61.2,54.4,30.08,West,260,0.0,5.0,78,0.00,,,0.00,WUHU216DAVISVP2,2013-08-15 04:16:00,
2013-08-14 23:21:00,61.1,54.6,30.08,West,260,1.0,5.0,79,0.00,,,0.00,WUHU216DAVISVP2,2013-08-15 04:21:00,
2013-08-14 23:26:00,60.9,54.4,30.08,West,260,2.0,5.0,79,0.00,,,0.00,WUHU216DAVISVP2,2013-08-15 04:26:00,
2013-08-14 23:31:00,60.8,54.3,30.08,West,260,2.0,5.0,79,0.00,,,0.00,WUHU216DAVISVP2,2013-08-15 04:31:00,
2013-08-14 23:36:00,60.6,54.1,30.08,West,260,0.0,5.0,79,0.00,,,0.00,WUHU216DAVISVP2,2013-08-15 04:36:00,
2013-08-14 23:41:00,60.4,54.2,30.08,West,260,1.0,5.0,80,0.00,,,0.00,WUHU216DAVISVP2,2013-08-15 04:41:00,
2013-08-14 23:46:00,60.2,54.0,30.08,West,260,0.0,5.0,80,0.00,,,0.00,WUHU216DAVISVP2,2013-08-15 04:46:00,
2013-08-14 23:51:00,60.1,54.3,30.08,West,260,1.0,5.0,81,0.00,,,0.00,WUHU216DAVISVP2,2013-08-15 04:51:00,
2013-08-14 23:56:00,59.9,54.1,30.08,West,260,0.0,5.0,81,0.00,,,0.00,WUHU216DAVISVP2,2013-08-15 04:56:00,